Regional Weather Roundup
Issued by NWS

Home | Current Version | Previous Version | Text Only | Print | Product List | Glossary On
Versions: 1 2 3 4 5 6 7 8 9 10 11 12 13 14 15 16 17 18 19 20 21 22 23 24 25 26 27 28 29 30 31 32 33 34 35 36 37 38 39 40 41 42 43 44 45 46 47 48 49 50
000
ASUS43 KLSX 060859
RWRMO

WEATHER SUMMARY FOR MISSOURI
NATIONAL WEATHER SERVICE SPRINGFIELD MO
400 AM CDT MON JUL 06 2015

NOTE: "FAIR" INDICATES FEW OR NO CLOUDS BELOW 12,000 FEET WITH NO
       SIGNIFICANT WEATHER AND/OR OBSTRUCTIONS TO VISIBILITY.
       CURRENT SKY AND/OR WEATHER CONDITIONS ARE NOT AVAILABLE FOR
       CHILLICOTHE AND FARMINGTON.

MOZ001>031-035>038-043-044-053-054-061000-
...NORTHERN AND WESTERN MISSOURI...

CITY           SKY/WX    TMP DP  RH WIND       PRES   REMARKS
KANSAS CTY INT CLOUDY    75  71  87 S12       29.89S
KANSAS C DTWN  MOCLDY    76  69  79 S14       29.90R
LEE`S SUMMIT   PTCLDY    73  67  81 S14       29.93R
ST JOSEPH      CLOUDY    78  71  79 S12       29.86S
CHILLICOTHE      N/A     75  68  78 S6        29.92R
KIRKSVILLE     MOCLDY    72  68  87 S8        29.93F

$$
MOZ066>068-077>081-088>096-101>105-061000-
...SOUTHWEST MISSOURI...

CITY           SKY/WX    TMP DP  RH WIND       PRES   REMARKS
SPRINGFIELD    PTCLDY    71  69  93 S8        30.00S
JOPLIN         PTCLDY    74  70  87 S9        29.97S

$$
MOZ032>034-039>042-045>050-055>058-069>072-061000-
...CENTRAL MISSOURI...

CITY           SKY/WX    TMP DP  RH WIND       PRES   REMARKS
COLUMBIA       PTCLDY    73  71  93 S8        29.98R
JEFFERSON CITY PTCLDY    74  71  91 SE5       29.97R
ROLLA          CLEAR     72  71  97 S9        29.99R
SEDALIA        PTCLDY    74  67  78 S8        29.96S
OSAGE BEACH    PTCLDY    73  70  88 S3        29.98S

$$
MOZ051-052-059>065-061000-
...EAST CENTRAL MISSOURI...

CITY           SKY/WX    TMP DP  RH WIND       PRES   REMARKS
ST LOUIS INTL  PTCLDY    75  68  78 S5        30.01R
SPIRIT OF STL  CLEAR     71  70  96 CALM      29.98R
ST CHARLES     CLEAR     70  68  93 E3        29.99R FOG

$$
MOZ072>076-082>087-097>100-106>115-061000-
...SOUTH CENTRAL AND SOUTHEAST MISSOURI...

CITY           SKY/WX    TMP DP  RH WIND       PRES   REMARKS
CAPE GIRARDEAU MOCLDY    73  71  93 S3        30.02S
FARMINGTON     CLOUDY    72  72 100 S5        30.06R
POPLAR BLUFF   CLOUDY    74  72  93 S8        30.01S
WEST PLAINS    CLOUDY    72  69  90 CALM      30.04S

$$



USA.gov is the U.S. government's official web portal to all federal, state and local government web resources and services.